Flag for U.S.A. Weather past 2 weeks in New Haven, Connecticut, U.S.A.

Now
47 °F

Clear.


Feels Like: 41 °F
Forecast: 48 / 66 °F
Wind: 14 mph from Northwest

Location: Tweed-New Haven Airport

Current Time: May 23, 2015 at 7:05:02 AM

Latest Report: May 23, 2015 at 5:53 AM


Visibility: 10 mi

Pressure: 30.32 "Hg

Humidity: 52%

Dew point: 30 °F

Location of New HavenLocation

Historic Weather in New Haven — Graph

°F

New Haven temperature yesterday

Maximum temperature yesterday: 71 °F (at 3:53 PM)
Minimum temperature yesterday: 52 °F (at 2:53 AM)
Average temperature yesterday: 61 °F

Past Weeks' High & Low Weather Summary

 TemperatureHumidityPressure
High77 °F (May 11, 1:53 PM)100% (May 8, 6:53 AM)30.38 "Hg (May 8, 6:53 AM)
Low43 °F (May 15, 3:53 AM)25% (May 14, 11:53 AM)29.71 "Hg (May 12, 6:53 PM)
Average60 °F72%30.08 "Hg
* Reported May 8 5:53 AM — May 23 5:53 AM, New Haven, Weather by CustomWeather, © 2015

Note: Actual official high and low records may vary slightly from our data, if they occured in-between our weather recording intervals... More about our weather records

Advertising

New Haven weather history for previous 24 hours

 ConditionsComfort  
Time TempWeatherWind HumidityBarometerVisibility
5:53 AM
Sat, May 23
47 °FClear.14 mph52%30.32 "Hg10 mi
4:53 AM48 °FClear.6 mph50%30.29 "Hg10 mi
3:53 AM50 °FClear.7 mph50%30.25 "Hg10 mi
2:53 AM50 °FClear.5 mph50%30.19 "Hg10 mi
1:53 AM52 °FClear.6 mph49%30.17 "Hg10 mi
12:53 AM55 °FClear.10 mph40%30.14 "Hg10 mi
11:53 PM
Fri, May 22
56 °FClear.8 mph39%30.12 "Hg10 mi
10:53 PM58 °FClear.10 mph36%30.09 "Hg10 mi
9:53 PM61 °FPassing clouds.N/A32%30.06 "Hg10 mi
8:53 PM63 °FScattered clouds.7 mph29%30.02 "Hg10 mi
7:53 PM66 °FScattered clouds.10 mph27%29.98 "Hg10 mi
6:53 PM69 °FScattered clouds.12 mph26%29.94 "Hg10 mi
5:53 PM70 °FScattered clouds.13 mph27%29.92 "Hg10 mi
4:53 PM71 °FScattered clouds.15 mph29%29.91 "Hg10 mi
3:53 PM71 °FPartly sunny.13 mph31%29.89 "Hg10 mi
2:53 PM70 °FScattered clouds.12 mph30%29.87 "Hg10 mi
1:53 PM70 °FPartly sunny.8 mph38%29.87 "Hg10 mi
12:53 PM69 °FScattered clouds.8 mph42%29.87 "Hg10 mi
11:53 AM63 °FPassing clouds.14 mph54%29.88 "Hg10 mi
10:53 AM64 °FSunny.9 mph56%29.89 "Hg10 mi
9:53 AM64 °FSunny.7 mph43%29.88 "Hg10 mi
8:53 AM62 °FSunny.12 mph48%29.87 "Hg10 mi
7:53 AM57 °FSunny.3 mph67%29.87 "Hg10 mi
Weather by CustomWeather, © 2015

See weather overviewHow to use our weather pages